EN

Hourly Weather Nagarkot

Today, 23 January, Saturday

Time Temperature Precipitation Wind Pressure Humidity
00:00 +10°C° 0 mm 1 mps 666 mmHg 77%
01:00 +10°C° 0 mm 1 mps 665 mmHg 77%
02:00 +10°C° 0 mm 1 mps 665 mmHg 77%
03:00 +10°C° 0 mm 1 mps 665 mmHg 77%
04:00 +9°C° 0 mm 1 mps 665 mmHg 77%
05:00 +9°C° 0 mm 1 mps 665 mmHg 77%
06:00 +9°C° 0 mm 1 mps 665 mmHg 77%
07:00 +11°C° 0 mm 1 mps 666 mmHg 70%
08:00 +13°C° 0 mm 1 mps 667 mmHg 63%
09:00 +14°C° 0 mm 0 mps 668 mmHg 57%
10:00 +18°C° 0 mm 1 mps 668 mmHg 52%
11:00 +20°C° 0 mm 1 mps 669 mmHg 47%
12:00 +20°C° 0 mm 2 mps 669 mmHg 42%
13:00 +20°C° 0 mm 2 mps 668 mmHg 42%
14:00 +20°C° 0 mm 2 mps 668 mmHg 41%
15:00 +21°C° 0 mm 2 mps 667 mmHg 41%
16:00 +18°C° 0 mm 2 mps 667 mmHg 50%
17:00 +16°C° 0 mm 1 mps 666 mmHg 60%
18:00 +13°C° 0 mm 1 mps 666 mmHg 69%
19:00 +12°C° 0 mm 1 mps 666 mmHg 71%
20:00 +12°C° 0 mm 1 mps 666 mmHg 73%
21:00 +11°C° 0 mm 1 mps 667 mmHg 76%
22:00 +11°C° 0 mm 1 mps 667 mmHg 76%
23:00 +11°C° 0 mm 1 mps 667 mmHg 76%

Tomorrow, 24 January, Sunday

Time Temperature Precipitation Wind Pressure Humidity
00:00 +11°C° 0 mm 1 mps 667 mmHg 77%
01:00 +10°C° 0 mm 1 mps 666 mmHg 76%
02:00 +10°C° 0 mm 1 mps 666 mmHg 76%
03:00 +10°C° 0 mm 1 mps 665 mmHg 76%
04:00 +10°C° 0 mm 1 mps 665 mmHg 76%
05:00 +10°C° 0 mm 1 mps 665 mmHg 75%
06:00 +10°C° 0 mm 1 mps 665 mmHg 75%
07:00 +12°C° 0 mm 1 mps 666 mmHg 68%
08:00 +14°C° 0 mm 1 mps 667 mmHg 61%
09:00 +15°C° 0 mm 0 mps 668 mmHg 54%
10:00 +19°C° 0 mm 1 mps 669 mmHg 48%
11:00 +19°C° 0 mm 2 mps 669 mmHg 43%
12:00 +21°C° 0 mm 2 mps 669 mmHg 37%
13:00 +21°C° 0 mm 2 mps 669 mmHg 37%
14:00 +21°C° 0 mm 2 mps 668 mmHg 36%
15:00 +21°C° 0 mm 2 mps 668 mmHg 36%
16:00 +19°C° 0 mm 2 mps 667 mmHg 44%
17:00 +16°C° 0 mm 1 mps 667 mmHg 53%
18:00 +13°C° 0 mm 0 mps 666 mmHg 62%
19:00 +13°C° 0 mm 1 mps 667 mmHg 63%
20:00 +13°C° 0 mm 1 mps 667 mmHg 64%
21:00 +12°C° 0 mm 1 mps 667 mmHg 66%
22:00 +12°C° 0 mm 1 mps 667 mmHg 64%
23:00 +12°C° 0 mm 1 mps 667 mmHg 62%

Day after tomorrow, 25 January, Monday

Time Temperature Precipitation Wind Pressure Humidity
00:00 +12°C° 0 mm 1 mps 667 mmHg 61%
01:00 +12°C° 0 mm 2 mps 667 mmHg 59%
02:00 +10°C° 0 mm 2 mps 667 mmHg 57%
03:00 +10°C° 0 mm 2 mps 667 mmHg 56%
04:00 +10°C° 0 mm 2 mps 666 mmHg 54%
05:00 +11°C° 0 mm 1 mps 666 mmHg 53%
06:00 +10°C° 0 mm 1 mps 666 mmHg 52%
07:00 +13°C° 0 mm 1 mps 667 mmHg 46%
08:00 +15°C° 0 mm 1 mps 668 mmHg 41%
09:00 +16°C° 0 mm 0 mps 670 mmHg 35%
10:00 +20°C° 0 mm 1 mps 670 mmHg 33%
11:00 +21°C° 0 mm 1 mps 670 mmHg 31%
12:00 +23°C° 0 mm 2 mps 670 mmHg 29%
13:00 +23°C° 0 mm 2 mps 670 mmHg 30%
14:00 +23°C° 0 mm 2 mps 669 mmHg 31%
15:00 +22°C° 0 mm 3 mps 669 mmHg 31%
16:00 +19°C° 0 mm 2 mps 668 mmHg 40%
17:00 +18°C° 0 mm 1 mps 667 mmHg 49%
18:00 +14°C° 0 mm 1 mps 667 mmHg 57%
19:00 +14°C° 0 mm 1 mps 667 mmHg 60%
20:00 +13°C° 0 mm 1 mps 667 mmHg 62%
21:00 +12°C° 0 mm 1 mps 667 mmHg 64%
22:00 +12°C° 0 mm 1 mps 667 mmHg 65%
23:00 +12°C° 0 mm 1 mps 667 mmHg 65%

26 January, Tuesday

Time Temperature Precipitation Wind Pressure Humidity
00:00 +11°C° 0 mm 1 mps 667 mmHg 65%
01:00 +11°C° 0 mm 1 mps 667 mmHg 65%
02:00 +11°C° 0 mm 1 mps 666 mmHg 65%
03:00 +10°C° 0 mm 2 mps 666 mmHg 65%
04:00 +11°C° 0 mm 1 mps 666 mmHg 65%
05:00 +10°C° 0 mm 1 mps 666 mmHg 65%
06:00 +10°C° 0 mm 1 mps 666 mmHg 65%
07:00 +12°C° 0 mm 1 mps 667 mmHg 59%
08:00 +14°C° 0 mm 1 mps 668 mmHg 53%
09:00 +15°C° 0 mm 0 mps 669 mmHg 47%
10:00 +19°C° 0 mm 1 mps 670 mmHg 43%
11:00 +19°C° 0 mm 2 mps 670 mmHg 39%
12:00 +21°C° 0 mm 2 mps 670 mmHg 35%
13:00 +21°C° 0 mm 2 mps 669 mmHg 35%
14:00 +21°C° 0 mm 2 mps 669 mmHg 34%
15:00 +21°C° 0 mm 2 mps 668 mmHg 34%
16:00 +19°C° 0 mm 2 mps 668 mmHg 41%
17:00 +16°C° 0 mm 1 mps 667 mmHg 48%
18:00 +14°C° 0 mm 1 mps 666 mmHg 55%
19:00 +13°C° 0 mm 1 mps 667 mmHg 57%
20:00 +12°C° 0 mm 1 mps 667 mmHg 59%
21:00 +12°C° 0 mm 1 mps 667 mmHg 61%
22:00 +11°C° 0 mm 1 mps 667 mmHg 61%
23:00 +11°C° 0 mm 1 mps 667 mmHg 62%

27 January, Wednesday

Time Temperature Precipitation Wind Pressure Humidity
00:00 +11°C° 0 mm 1 mps 666 mmHg 63%
01:00 +11°C° 0 mm 1 mps 666 mmHg 63%
02:00 +10°C° 0 mm 1 mps 666 mmHg 63%
03:00 +10°C° 0 mm 1 mps 666 mmHg 64%
04:00 +10°C° 0 mm 1 mps 666 mmHg 64%
05:00 +10°C° 0 mm 1 mps 666 mmHg 64%
06:00 +10°C° 0 mm 1 mps 666 mmHg 64%
07:00 +12°C° 0 mm 1 mps 667 mmHg 58%
08:00 +14°C° 0 mm 1 mps 668 mmHg 51%
09:00 +16°C° 0 mm 1 mps 669 mmHg 44%
10:00 +19°C° 0 mm 1 mps 669 mmHg 39%
11:00 +19°C° 0 mm 2 mps 670 mmHg 34%
12:00 +21°C° 0 mm 2 mps 670 mmHg 29%
13:00 +21°C° 0 mm 2 mps 669 mmHg 27%
14:00 +21°C° 0 mm 2 mps 669 mmHg 25%
15:00 +23°C° 0 mm 2 mps 668 mmHg 24%
16:00 +19°C° 0 mm 2 mps 667 mmHg 30%
17:00 +16°C° 0 mm 1 mps 667 mmHg 36%
18:00 +12°C° 0 mm 0 mps 666 mmHg 42%
19:00 +12°C° 0 mm 1 mps 666 mmHg 42%
20:00 +12°C° 0 mm 1 mps 667 mmHg 43%
21:00 +11°C° 0 mm 1 mps 667 mmHg 44%
22:00 +11°C° 0 mm 1 mps 667 mmHg 44%
23:00 +11°C° 0 mm 1 mps 667 mmHg 44%

28 January, Thursday

Time Temperature Precipitation Wind Pressure Humidity
00:00 +11°C° 0 mm 1 mps 667 mmHg 45%
01:00 +10°C° 0 mm 2 mps 667 mmHg 45%
02:00 +10°C° 0 mm 2 mps 666 mmHg 45%
03:00 +9°C° 0 mm 2 mps 666 mmHg 45%
04:00 +9°C° 0 mm 2 mps 666 mmHg 46%
05:00 +9°C° 0 mm 2 mps 666 mmHg 46%
06:00 +10°C° 0 mm 1 mps 666 mmHg 46%
07:00 +12°C° 0 mm 1 mps 667 mmHg 40%
08:00 +14°C° 0 mm 1 mps 668 mmHg 33%
09:00 +18°C° 0 mm 1 mps 670 mmHg 27%
10:00 +20°C° 0 mm 1 mps 670 mmHg 24%
11:00 +20°C° 0 mm 2 mps 671 mmHg 20%
12:00 +23°C° 0 mm 2 mps 671 mmHg 16%
13:00 +23°C° 0 mm 2 mps 670 mmHg 17%
14:00 +23°C° 0 mm 2 mps 670 mmHg 17%
15:00 +23°C° 0 mm 2 mps 669 mmHg 18%
16:00 +20°C° 0 mm 2 mps 668 mmHg 24%
17:00 +18°C° 0 mm 1 mps 668 mmHg 30%
18:00 +14°C° 0 mm 1 mps 667 mmHg 36%
19:00 +14°C° 0 mm 1 mps 667 mmHg 36%
20:00 +13°C° 0 mm 1 mps 668 mmHg 36%
21:00 +13°C° 0 mm 1 mps 668 mmHg 36%
22:00 +12°C° 0 mm 1 mps 668 mmHg 36%
23:00 +12°C° 0 mm 1 mps 668 mmHg 37%
Show more

We Need Your Consent

Meteoprog and our Service Providers may store and access personal data such as cookies, device identifiers or other similar technologies on your device and process such data to personalise content and ads, as well as provide social media features and to analyse the traffic.

  • Store and/or access information on your device

    Cookies, device identifiers or other information can be stored or accessed on your device for the purposes indicated above.

  • Personalised ads and content, ad and content measurement, audience insights, and products development

    Ads and content can be personalised based on a profile. More data can be added to better personalise ads and content. Ad and content performance can be measured. Insights about the audience who saw the ads and content can be derived. Such data can be used to develop or improve user’s experience, systems and software.

By clicking ‘I Agree’ you will allow the use of indicated cookies, device identifiers, web beacons or other similar technologies. Your settings can be changed in the browser on your device.

For certain purposes, legitimate interests may be relied on, rather than consent. You can read more about this in our Privacy and Cookie Policy.